Location: ??????
(42.0089°N, 44.3281°E)
Time: 12:16:40
(UTC+00:00)

Cosmos 1459 Rocket - Pass Details

Date: 24 October 2021
Orbit: 937 x 999 km, 83.0° (Epoch: 07 December)

Event Time Altitude Azimuth Distance (km) Brightness Sun altitude
Rises 16:29:34 0° 184° (S) 3,664 7.0 -27.0°
Reaches altitude 10° 16:32:04 10° 185° (S) 2,711 6.3 -27.5°
Maximum altitude 16:38:17 88° 96° (E) 969 3.8 -28.6°
Drops below altitude 10° 16:44:27 10° 8° (N) 2,686 6.3 -29.7°
Sets 16:46:56 0° 8° (N) 3,628 7.0 -30.2°
